Regional Weather Roundup
Issued by NWS

Home | Current Version | Previous Version | Graphics & Text | Print | Product List | Glossary On
Versions: 1 2 3 4 5 6 7 8 9 10 11 12 13 14 15 16 17 18 19 20 21 22 23 24 25 26 27 28 29 30 31 32 33 34 35 36 37 38 39 40 41 42 43 44 45 46 47 48 49 50
000
ASUS45 KBOI 070710
RWRID

IDAHO REGIONAL WEATHER ROUNDUP
NATIONAL WEATHER SERVICE BOISE ID
1200 AM MST WED DEC 07 2016

NOTE: "FAIR" INDICATES FEW OR NO CLOUDS BELOW 12000 FEET
WITH NO SIGNIFICANT WEATHER AND/OR OBSTRUCTIONS TO VISIBILITY

IDZ012-014-070800-
SOUTHWEST IDAHO


CITY           SKY/WX    TMP DP  RH WIND       PRES   REMARKS
BOISE          CLEAR     14  11  87 CALM      30.15R
CALDWELL       CLOUDY    13  11  92 E3        30.20R
MOUNTAIN HOME  FOG       16  15  96 NW8       30.13R VSB 1/2 WCI   5
$$

IDZ016-017-070800-
SOUTHCENTRAL IDAHO


CITY           SKY/WX    TMP DP  RH WIND       PRES   REMARKS
BURLEY         CLOUDY    20  16  84 W9G16     30.05R WCI   9
JEROME         CLOUDY    19  17  92 SW13      30.06R WCI   6
TWIN FALLS     CLOUDY    19  15  84 SW15      30.06R WCI   5
$$

IDZ019>023-070800-
SOUTHEAST IDAHO


CITY           SKY/WX    TMP DP  RH WIND       PRES   REMARKS
IDAHO FALLS    CLOUDY    13   3  64 NW6       29.99R WCI   4
POCATELLO      LGT SNOW  16  14  92 CALM      30.03R
REXBURG        CLOUDY     8   5  87 NE6       29.98R WCI  -2
$$

IDZ006-010-011-018-031-032-070800-
CENTRAL IDAHO MOUNTAINS


CITY           SKY/WX    TMP DP  RH WIND       PRES   REMARKS
MCCALL         CLOUDY    11   6  81 CALM      30.00R HAZE
HAILEY         CLEAR      5   1  85 NW7       29.99R WCI  -7
STANLEY          N/A     -3  -7  82 CALM      29.94R
SALMON         CLOUDY    10   9  92 CALM      30.08R
CHALLIS        MOCLDY     9   6  88 CALM      30.01R
$$

IDZ002-004-006-007-026-070800-
NORTHERN IDAHO


CITY           SKY/WX    TMP DP  RH WIND       PRES   REMARKS
LEWISTON       CLOUDY    28  18  66 NW6       30.27R WCI  22
LOWELL         NOT AVBL
COEUR D`ALENE  CLEAR     15  12  88 NE5       30.23R WCI   8
MULLAN PASS    CLOUDY     6   2  83 VRB3      29.96R
$$



USA.gov is the U.S. government's official web portal to all federal, state and local government web resources and services.